Mount Werner, CO

8:42 PM MDT on September 25, 2017 (GMT -0600)
Mount Werner

Weather History for K3MW - October, 2012

Change the Weather History Date:

Monday, October 29, 2012

  Actual Average (KSBS) Record (KSBS)
Temperature  
Mean Temperature 38 °F -  
Max Temperature 42 °F 51 °F 75 °F (1950)
Min Temperature 33 °F 21 °F 0 °F (1991)
Degree Days  
Heating Degree Days 28    
Moisture  
Dew Point 26 °F    
Average Humidity 64    
Maximum Humidity 87    
Minimum Humidity 46    
Precipitation  
Precipitation 0.00 in - - ()
Sea Level Pressure  
Sea Level Pressure 30.21 in    
Wind  
Wind Speed 14 mph (West)    
Max Wind Speed 18 mph    
Max Gust Speed 26 mph    
Visibility 10 miles    
Events      
Averages and records for this station are not official NWS values.
T = Trace of Precipitation, MM = Missing Value Source: NWS Daily Summary

Daily Weather History Graph

Daily Weather History Graph

Search for Another Location

Airport or City:

Trip Planner

Search our weather history database for the weather conditions in past years. The results will help you decide how hot, cold, wet, or windy it might be!

Date:

Astronomy

Oct. 29, 2012 Rise Set
Actual Time 7:34 AM MDT 6:06 PM MDT
Civil Twilight 7:05 AM MDT 6:34 PM MDT
Nautical Twilight 6:33 AM MDT 7:06 PM MDT
Astronomical Twilight 6:02 AM MDT 7:38 PM MDT
Moon 6:00 PM MDT (10/29) 7:27 AM MDT (10/29)
Length of Visible Light 11h 29m
Length of Day
10h 32m
Full, 100% of the Moon is Illuminated
Oct 29
Full
Oct 29
Full
Nov 6
Last Quarter
Nov 13
New
Nov 20
First Quarter

Hourly Weather History & Observations

Time (MDT) Temp. Windchill Dew Point Humidity Pressure Visibility Wind Dir Wind Speed Gust Speed Precip Events Conditions
12:15 AM 33.8 °F 23.2 °F 28.4 °F 81% 30.17 in 10.0 mi West 17.3 mph 21.9 mph N/A   Overcast
12:35 AM 33.8 °F 23.5 °F 28.4 °F 81% 30.17 in 10.0 mi West 16.1 mph 21.9 mph N/A   Overcast
12:55 AM 33.8 °F 23.5 °F 28.4 °F 81% 30.18 in 10.0 mi West 16.1 mph - N/A   Overcast
1:15 AM 33.8 °F 23.9 °F 28.4 °F 81% 30.19 in 10.0 mi West 15.0 mph 21.9 mph N/A   Overcast
1:35 AM 33.8 °F 23.9 °F 28.4 °F 81% 30.19 in 10.0 mi West 15.0 mph 20.7 mph N/A   Overcast
1:55 AM 33.8 °F 23.9 °F 28.4 °F 81% 30.19 in 10.0 mi West 15.0 mph 19.6 mph N/A   Overcast
2:15 AM 33.8 °F 23.9 °F 28.4 °F 81% 30.19 in 10.0 mi West 15.0 mph 20.7 mph N/A   Overcast
2:35 AM 33.8 °F 24.8 °F 28.4 °F 81% 30.19 in 10.0 mi West 12.7 mph 19.6 mph N/A   Overcast
2:55 AM 33.8 °F 24.3 °F 28.4 °F 81% 30.19 in 10.0 mi West 13.8 mph 19.6 mph N/A   Overcast
3:15 AM 33.8 °F 23.9 °F 28.4 °F 81% 30.20 in 10.0 mi WSW 15.0 mph 19.6 mph N/A   Overcast
3:35 AM 33.8 °F 23.9 °F 30.2 °F 87% 30.19 in 10.0 mi WSW 15.0 mph 20.7 mph N/A   Overcast
3:55 AM 33.8 °F 23.9 °F 30.2 °F 87% 30.18 in 10.0 mi WSW 15.0 mph - N/A   Overcast
4:15 AM 33.8 °F 23.9 °F 30.2 °F 87% 30.18 in 10.0 mi WSW 15.0 mph 20.7 mph N/A   Overcast
4:55 AM 33.8 °F 24.3 °F 30.2 °F 87% 30.19 in 10.0 mi WSW 13.8 mph - N/A   Overcast
5:15 AM 35.6 °F 26.6 °F 30.2 °F 81% 30.19 in 10.0 mi WSW 13.8 mph - N/A   Overcast
5:35 AM 35.6 °F 26.6 °F 30.2 °F 81% 30.19 in 10.0 mi WSW 13.8 mph - N/A   Overcast
5:55 AM 35.6 °F 26.6 °F 28.4 °F 75% 30.19 in 10.0 mi WSW 13.8 mph - N/A   Overcast
6:15 AM 35.6 °F 27.1 °F 26.6 °F 70% 30.19 in 10.0 mi WSW 12.7 mph - N/A   Overcast
6:35 AM 35.6 °F 25.9 °F 24.8 °F 65% 30.19 in 10.0 mi WSW 16.1 mph - N/A   Overcast
6:55 AM 35.6 °F 25.9 °F 24.8 °F 65% 30.19 in 10.0 mi WSW 16.1 mph - N/A   Overcast
7:15 AM 35.6 °F 25.9 °F 24.8 °F 65% 30.18 in 10.0 mi WSW 16.1 mph - N/A   Overcast
7:35 AM 35.6 °F 25.9 °F 24.8 °F 65% 30.19 in 10.0 mi WSW 16.1 mph - N/A   Scattered Clouds
7:55 AM 35.6 °F 26.2 °F 24.8 °F 65% 30.19 in 10.0 mi WSW 15.0 mph - N/A   Clear
8:15 AM 33.8 °F 25.3 °F 24.8 °F 70% 30.20 in 10.0 mi WSW 11.5 mph - N/A   Mostly Cloudy
8:35 AM 33.8 °F 24.8 °F 26.6 °F 75% 30.21 in 10.0 mi WSW 12.7 mph - N/A   Overcast
8:55 AM 35.6 °F 27.1 °F 24.8 °F 65% 30.22 in 10.0 mi SW 12.7 mph - N/A   Scattered Clouds
9:15 AM 35.6 °F 27.1 °F 24.8 °F 65% 30.22 in 10.0 mi SW 12.7 mph - N/A   Mostly Cloudy
9:35 AM 35.6 °F 27.1 °F 24.8 °F 65% 30.22 in 10.0 mi SW 12.7 mph - N/A   Overcast
9:55 AM 35.6 °F 28.0 °F 24.8 °F 65% 30.24 in 10.0 mi SSW 10.4 mph - N/A   Mostly Cloudy
10:15 AM 35.6 °F 28.6 °F 24.8 °F 65% 30.24 in 10.0 mi WSW 9.2 mph 16.1 mph N/A   Overcast
10:35 AM 35.6 °F 28.6 °F 24.8 °F 65% 30.24 in 10.0 mi WSW 9.2 mph 16.1 mph N/A   Overcast
10:55 AM 37.4 °F 30.3 °F 26.6 °F 65% 30.25 in 10.0 mi SW 10.4 mph - N/A   Overcast
11:35 AM 37.4 °F 28.5 °F 26.6 °F 65% 30.25 in 10.0 mi WSW 15.0 mph 21.9 mph N/A   Overcast
11:55 AM 37.4 °F 28.9 °F 26.6 °F 65% 30.25 in 10.0 mi WSW 13.8 mph 19.6 mph N/A   Overcast
12:15 PM 37.4 °F 29.8 °F 26.6 °F 65% 30.25 in 10.0 mi West 11.5 mph 20.7 mph N/A   Overcast
12:35 PM 39.2 °F 33.0 °F 24.8 °F 56% 30.24 in 10.0 mi West 9.2 mph 21.9 mph N/A   Overcast
12:55 PM 39.2 °F 30.5 °F 26.6 °F 61% 30.23 in 10.0 mi West 16.1 mph 21.9 mph N/A   Scattered Clouds
1:15 PM 41.0 °F 34.7 °F 26.6 °F 57% 30.23 in 10.0 mi West 10.4 mph 18.4 mph N/A   Clear
1:35 PM 41.0 °F 34.3 °F 26.6 °F 57% 30.22 in 10.0 mi West 11.5 mph 17.3 mph N/A   Clear
1:55 PM 41.0 °F 33.9 °F 26.6 °F 57% 30.22 in 10.0 mi West 12.7 mph 17.3 mph N/A   Clear
2:15 PM 41.0 °F 34.7 °F 26.6 °F 57% 30.22 in 10.0 mi West 10.4 mph 16.1 mph N/A   Scattered Clouds
2:35 PM 42.8 °F 36.2 °F 26.6 °F 53% 30.22 in 10.0 mi West 12.7 mph - N/A   Scattered Clouds
2:55 PM 41.0 °F 34.3 °F 26.6 °F 57% 30.22 in 10.0 mi West 11.5 mph 17.3 mph N/A   Scattered Clouds
3:15 PM 42.8 °F 37.5 °F 26.6 °F 53% 30.22 in 10.0 mi West 9.2 mph - N/A   Clear
3:35 PM 41.0 °F 35.2 °F 26.6 °F 57% 30.22 in 10.0 mi West 9.2 mph 18.4 mph N/A   Clear
3:55 PM 42.8 °F 36.2 °F 26.6 °F 53% 30.21 in 10.0 mi West 12.7 mph 20.7 mph N/A   Scattered Clouds
4:15 PM 42.8 °F 35.1 °F 26.6 °F 53% 30.21 in 10.0 mi West 16.1 mph 21.9 mph N/A   Clear
4:35 PM 42.8 °F 36.2 °F 24.8 °F 49% 30.20 in 10.0 mi West 12.7 mph 23.0 mph N/A   Clear
4:55 PM 42.8 °F 34.8 °F 24.8 °F 49% 30.20 in 10.0 mi West 17.3 mph 25.3 mph N/A   Clear
5:15 PM 42.8 °F 34.5 °F 23.0 °F 46% 30.20 in 10.0 mi West 18.4 mph 23.0 mph N/A   Clear
5:35 PM 42.8 °F 34.8 °F 23.0 °F 46% 30.21 in 10.0 mi West 17.3 mph 23.0 mph N/A   Clear
5:55 PM 41.0 °F 32.5 °F 23.0 °F 49% 30.21 in 10.0 mi West 17.3 mph 23.0 mph N/A   Clear
6:15 PM 41.0 °F 32.2 °F 23.0 °F 49% 30.21 in 10.0 mi West 18.4 mph 26.5 mph N/A   Clear
6:35 PM 41.0 °F 32.5 °F 23.0 °F 49% 30.21 in 10.0 mi West 17.3 mph 24.2 mph N/A   Clear
6:55 PM 41.0 °F 32.5 °F 23.0 °F 49% 30.22 in 10.0 mi West 17.3 mph 24.2 mph N/A   Clear
7:15 PM 39.2 °F 30.8 °F 23.0 °F 52% 30.22 in 10.0 mi West 15.0 mph 23.0 mph N/A   Clear
7:35 PM 39.2 °F 30.2 °F 24.8 °F 56% 30.22 in 10.0 mi West 17.3 mph 23.0 mph N/A   Clear
7:55 PM 39.2 °F 30.5 °F 24.8 °F 56% 30.22 in 10.0 mi West 16.1 mph 25.3 mph N/A   Clear
8:15 PM 37.4 °F 27.8 °F 23.0 °F 56% 30.22 in 10.0 mi West 17.3 mph 23.0 mph N/A   Clear
8:35 PM 37.4 °F 28.2 °F 23.0 °F 56% 30.22 in 10.0 mi West 16.1 mph 23.0 mph N/A   Clear
8:55 PM 37.4 °F 29.3 °F 23.0 °F 56% 30.24 in 10.0 mi West 12.7 mph 21.9 mph N/A   Clear
9:15 PM 37.4 °F 29.3 °F 23.0 °F 56% 30.24 in 10.0 mi West 12.7 mph 19.6 mph N/A   Clear
9:35 PM 37.4 °F 29.3 °F 21.2 °F 52% 30.24 in 10.0 mi West 12.7 mph 19.6 mph N/A   Clear
9:55 PM 37.4 °F 29.8 °F 21.2 °F 52% 30.24 in 10.0 mi West 11.5 mph - N/A   Clear
10:15 PM 37.4 °F 29.8 °F 21.2 °F 52% 30.24 in 10.0 mi West 11.5 mph 18.4 mph N/A   Clear
10:35 PM 37.4 °F 30.3 °F 21.2 °F 52% 30.25 in 10.0 mi West 10.4 mph - N/A   Clear
10:55 PM 37.4 °F 29.3 °F 21.2 °F 52% 30.25 in 10.0 mi WSW 12.7 mph 18.4 mph N/A   Clear
11:15 PM 37.4 °F 29.8 °F 21.2 °F 52% 30.25 in 10.0 mi WSW 11.5 mph - N/A   Clear
11:35 PM 37.4 °F 29.8 °F 21.2 °F 52% 30.25 in 10.0 mi West 11.5 mph - N/A   Scattered Clouds
11:55 PM 37.4 °F 28.9 °F 23.0 °F 56% 30.25 in 10.0 mi West 13.8 mph 18.4 mph N/A   Scattered Clouds